{"data":{"norad_id":53143,"epoch":"2026-09-20T04:00:03.000096Z","epoch_age_seconds":101050,"freshness":"FRESH","line1":"1 53143U 22083M   26263.16670139  .00143149  00000+0  32509-2 0  9995","line2":"2 53143  53.1598  11.3284 0001145  89.9972 150.6409 15.42039989  5890","mean_motion":15.42039989,"eccentricity":0.0001145,"inclination_deg":53.1598,"raan_deg":11.3284,"arg_perigee_deg":89.9972,"mean_anomaly_deg":150.6409,"bstar":0.0032509,"rev_number":589,"period_min":93.382792292814,"perigee_km":439.30870126924,"apogee_km":440.87007511213,"semimajor_km":6818.2263881907,"source":"CELESTRAK","updated_at":"2026-09-20T09:00:40.180467Z"}}